Year,Month,Day,Hour,Minute,Value (Times are PST for temperature in C)
2008,09,23,00,00,9.70
2008,09,23,00,01,9.70
2008,09,23,00,02,9.70
2008,09,23,00,03,9.70
2008,09,23,00,04,9.70
2008,09,23,00,05,9.70
2008,09,23,00,06,9.70
2008,09,23,00,07,9.70
2008,09,23,00,08,9.70
2008,09,23,00,09,9.70
2008,09,23,00,10,9.70
2008,09,23,00,11,9.60
2008,09,23,00,12,9.60
2008,09,23,00,13,9.60
2008,09,23,00,14,9.60
2008,09,23,00,15,9.60
2008,09,23,00,16,9.60
2008,09,23,00,17,9.50
2008,09,23,00,18,9.50
2008,09,23,00,19,9.50
2008,09,23,00,20,9.50
2008,09,23,00,21,9.50
2008,09,23,00,22,9.50
2008,09,23,00,23,9.50
2008,09,23,00,24,9.50
2008,09,23,00,25,9.50
2008,09,23,00,26,9.40
2008,09,23,00,27,9.40
2008,09,23,00,28,9.40
2008,09,23,00,29,9.40
2008,09,23,00,30,9.40
2008,09,23,00,31,9.40
2008,09,23,00,32,9.30
2008,09,23,00,33,9.30
2008,09,23,00,34,9.30
2008,09,23,00,35,9.30
2008,09,23,00,36,9.20
2008,09,23,00,37,9.20
2008,09,23,00,38,9.20
2008,09,23,00,39,9.20
2008,09,23,00,40,9.20
2008,09,23,00,41,9.20
2008,09,23,00,42,9.20
2008,09,23,00,43,9.20
2008,09,23,00,44,9.20
2008,09,23,00,45,9.20
2008,09,23,00,46,9.20
2008,09,23,00,47,9.20
2008,09,23,00,48,9.20
2008,09,23,00,49,9.20
2008,09,23,00,50,9.20
2008,09,23,00,51,9.20
2008,09,23,00,52,9.20
2008,09,23,00,53,9.20
2008,09,23,00,54,9.10
2008,09,23,00,55,9.10
2008,09,23,00,56,9.10
2008,09,23,00,57,9.10
2008,09,23,00,58,9.10
2008,09,23,00,59,9.10
2008,09,23,01,00,9.10
2008,09,23,01,01,9.10
2008,09,23,01,02,9.10
2008,09,23,01,03,9.10
2008,09,23,01,04,9.00
2008,09,23,01,05,9.00
2008,09,23,01,06,9.00
2008,09,23,01,07,9.00
2008,09,23,01,08,8.90
2008,09,23,01,09,8.90
2008,09,23,01,10,8.90
2008,09,23,01,11,8.90
2008,09,23,01,12,8.90
2008,09,23,01,13,8.90
2008,09,23,01,14,8.90
2008,09,23,01,15,8.90
2008,09,23,01,16,8.90
2008,09,23,01,17,8.90
2008,09,23,01,18,8.90
2008,09,23,01,19,8.80
2008,09,23,01,20,8.80
2008,09,23,01,21,8.80
2008,09,23,01,22,8.80
2008,09,23,01,23,8.80
2008,09,23,01,24,8.80
2008,09,23,01,25,8.80
2008,09,23,01,26,8.80
2008,09,23,01,27,8.80
2008,09,23,01,28,8.80
2008,09,23,01,29,8.80
2008,09,23,01,30,8.80
2008,09,23,01,31,8.80
2008,09,23,01,32,8.80
2008,09,23,01,33,8.80
2008,09,23,01,34,8.80
2008,09,23,01,35,8.80
2008,09,23,01,36,8.80
2008,09,23,01,37,8.80
2008,09,23,01,38,8.80
2008,09,23,01,39,8.80
2008,09,23,01,40,8.70
2008,09,23,01,41,8.70
2008,09,23,01,42,8.70
2008,09,23,01,43,8.70
2008,09,23,01,44,8.70
2008,09,23,01,45,8.70
2008,09,23,01,46,8.70
2008,09,23,01,47,8.70
2008,09,23,01,48,8.70
2008,09,23,01,49,8.70
2008,09,23,01,50,8.70
2008,09,23,01,51,8.70
2008,09,23,01,52,8.70
2008,09,23,01,53,8.70
2008,09,23,01,54,8.60
2008,09,23,01,55,8.60
2008,09,23,01,56,8.60
2008,09,23,01,57,8.60
2008,09,23,01,58,8.60
2008,09,23,01,59,8.60
2008,09,23,02,00,8.70
2008,09,23,02,01,8.70
2008,09,23,02,02,8.70
2008,09,23,02,03,8.60
2008,09,23,02,04,8.60
2008,09,23,02,05,8.60
2008,09,23,02,06,8.60
2008,09,23,02,07,8.60
2008,09,23,02,08,8.60
2008,09,23,02,09,8.60
2008,09,23,02,10,8.60
2008,09,23,02,11,8.60
2008,09,23,02,12,8.60
2008,09,23,02,13,8.60
2008,09,23,02,14,8.60
2008,09,23,02,15,8.60
2008,09,23,02,16,8.60
2008,09,23,02,17,8.60
2008,09,23,02,18,8.60
2008,09,23,02,19,8.60
2008,09,23,02,20,8.60
2008,09,23,02,21,8.60
2008,09,23,02,22,8.50
2008,09,23,02,23,8.50
2008,09,23,02,24,8.50
2008,09,23,02,25,8.50
2008,09,23,02,26,8.50
2008,09,23,02,27,8.50
2008,09,23,02,28,8.50
2008,09,23,02,29,8.50
2008,09,23,02,30,8.50
2008,09,23,02,31,8.40
2008,09,23,02,32,8.40
2008,09,23,02,33,8.40
2008,09,23,02,34,8.40
2008,09,23,02,35,8.40
2008,09,23,02,36,8.30
2008,09,23,02,37,8.30
2008,09,23,02,38,8.30
2008,09,23,02,39,8.30
2008,09,23,02,40,8.20
2008,09,23,02,41,8.20
2008,09,23,02,42,8.20
2008,09,23,02,43,8.20
2008,09,23,02,44,8.20
2008,09,23,02,45,8.20
2008,09,23,02,46,8.20
2008,09,23,02,47,8.20
2008,09,23,02,48,8.20
2008,09,23,02,49,8.20
2008,09,23,02,50,8.20
2008,09,23,02,51,8.20
2008,09,23,02,52,8.20
2008,09,23,02,53,8.20
2008,09,23,02,54,8.20
2008,09,23,02,55,8.20
2008,09,23,02,56,8.20
2008,09,23,02,57,8.20
2008,09,23,02,58,8.10
2008,09,23,02,59,8.10
2008,09,23,03,00,8.10
2008,09,23,03,01,8.10
2008,09,23,03,02,8.10
2008,09,23,03,03,8.10
2008,09,23,03,04,8.10
2008,09,23,03,05,8.10
2008,09,23,03,06,8.10
2008,09,23,03,07,8.00
2008,09,23,03,08,8.00
2008,09,23,03,09,8.00
2008,09,23,03,10,8.00
2008,09,23,03,11,8.00
2008,09,23,03,12,8.00
2008,09,23,03,13,7.90
2008,09,23,03,14,7.90
2008,09,23,03,15,7.90
2008,09,23,03,16,7.90
2008,09,23,03,17,7.90
2008,09,23,03,18,7.90
2008,09,23,03,19,7.80
2008,09,23,03,20,7.80
2008,09,23,03,21,7.80
2008,09,23,03,22,7.80
2008,09,23,03,23,7.80
2008,09,23,03,24,7.70
2008,09,23,03,25,7.70
2008,09,23,03,26,7.60
2008,09,23,03,27,7.60
2008,09,23,03,28,7.60
2008,09,23,03,29,7.50
2008,09,23,03,30,7.50
2008,09,23,03,31,7.40
2008,09,23,03,32,7.40
2008,09,23,03,33,7.40
2008,09,23,03,34,7.30
2008,09,23,03,35,7.30
2008,09,23,03,36,7.30
2008,09,23,03,37,7.30
2008,09,23,03,38,7.30
2008,09,23,03,39,7.30
2008,09,23,03,40,7.30
2008,09,23,03,41,7.30
2008,09,23,03,42,7.30
2008,09,23,03,43,7.30
2008,09,23,03,44,7.20
2008,09,23,03,45,7.20
2008,09,23,03,46,7.20
2008,09,23,03,47,7.10
2008,09,23,03,48,7.10
2008,09,23,03,49,7.00
2008,09,23,03,50,7.00
2008,09,23,03,51,7.00
2008,09,23,03,52,7.00
2008,09,23,03,53,7.00
2008,09,23,03,54,6.90
2008,09,23,03,55,6.90
2008,09,23,03,56,6.90
2008,09,23,03,57,6.80
2008,09,23,03,58,6.80
2008,09,23,03,59,6.80
2008,09,23,04,00,6.80
2008,09,23,04,01,6.80
2008,09,23,04,02,6.80
2008,09,23,04,03,6.80
2008,09,23,04,04,6.90
2008,09,23,04,05,6.90
2008,09,23,04,06,6.90
2008,09,23,04,07,6.90
2008,09,23,04,08,7.00
2008,09,23,04,09,7.00
2008,09,23,04,10,7.00
2008,09,23,04,11,7.00
2008,09,23,04,12,7.00
2008,09,23,04,13,7.00
2008,09,23,04,14,7.00
2008,09,23,04,15,7.00
2008,09,23,04,16,7.00
2008,09,23,04,17,7.00
2008,09,23,04,18,7.00
2008,09,23,04,19,7.00
2008,09,23,04,20,7.10
2008,09,23,04,21,7.10
2008,09,23,04,22,7.10
2008,09,23,04,23,7.20
2008,09,23,04,24,7.20
2008,09,23,04,25,7.20
2008,09,23,04,26,7.10
2008,09,23,04,27,7.10
2008,09,23,04,28,7.10
2008,09,23,04,29,7.00
2008,09,23,04,30,7.00
2008,09,23,04,31,6.90
2008,09,23,04,32,6.90
2008,09,23,04,33,6.80
2008,09,23,04,34,6.80
2008,09,23,04,35,6.80
2008,09,23,04,36,6.70
2008,09,23,04,37,6.70
2008,09,23,04,38,6.60
2008,09,23,04,39,6.60
2008,09,23,04,40,6.60
2008,09,23,04,41,6.60
2008,09,23,04,42,6.60
2008,09,23,04,43,6.60
2008,09,23,04,44,6.60
2008,09,23,04,45,6.60
2008,09,23,04,46,6.60
2008,09,23,04,47,6.60
2008,09,23,04,48,6.50
2008,09,23,04,49,6.40
2008,09,23,04,50,6.40
2008,09,23,04,51,6.40
2008,09,23,04,52,6.40
2008,09,23,04,53,6.40
2008,09,23,04,54,6.30
2008,09,23,04,55,6.30
2008,09,23,04,56,6.20
2008,09,23,04,57,6.20
2008,09,23,04,58,6.20
2008,09,23,04,59,6.10
2008,09,23,05,00,6.00
2008,09,23,05,01,6.00
2008,09,23,05,02,6.00
2008,09,23,05,03,6.10
2008,09,23,05,04,6.20
2008,09,23,05,05,6.30
2008,09,23,05,06,6.40
2008,09,23,05,07,6.40
2008,09,23,05,08,6.50
2008,09,23,05,09,6.60
2008,09,23,05,10,6.70
2008,09,23,05,11,6.70
2008,09,23,05,12,6.80
2008,09,23,05,13,6.80
2008,09,23,05,14,6.80
2008,09,23,05,15,6.80
2008,09,23,05,16,6.80
2008,09,23,05,17,6.80
2008,09,23,05,18,6.70
2008,09,23,05,19,6.60
2008,09,23,05,20,6.60
2008,09,23,05,21,6.60
2008,09,23,05,22,6.50
2008,09,23,05,23,6.40
2008,09,23,05,24,6.40
2008,09,23,05,25,6.40
2008,09,23,05,26,6.40
2008,09,23,05,27,6.30
2008,09,23,05,28,6.30
2008,09,23,05,29,6.30
2008,09,23,05,30,6.30
2008,09,23,05,31,6.30
2008,09,23,05,32,6.30
2008,09,23,05,33,6.30
2008,09,23,05,34,6.30
2008,09,23,05,35,6.30
2008,09,23,05,36,6.30
2008,09,23,05,37,6.30
2008,09,23,05,38,6.40
2008,09,23,05,39,6.40
2008,09,23,05,40,6.40
2008,09,23,05,41,6.40
2008,09,23,05,42,6.40
2008,09,23,05,43,6.40
2008,09,23,05,44,6.40
2008,09,23,05,45,6.40
2008,09,23,05,46,6.40
2008,09,23,05,47,6.40
2008,09,23,05,48,6.40
2008,09,23,05,49,6.30
2008,09,23,05,50,6.30
2008,09,23,05,51,6.30
2008,09,23,05,52,6.30
2008,09,23,05,53,6.20
2008,09,23,05,54,6.20
2008,09,23,05,55,6.20
2008,09,23,05,56,6.20
2008,09,23,05,57,6.20
2008,09,23,05,58,6.20
2008,09,23,05,59,6.20
2008,09,23,06,00,6.20
2008,09,23,06,01,6.20
2008,09,23,06,02,6.30
2008,09,23,06,03,6.40
2008,09,23,06,04,6.50
2008,09,23,06,05,6.60
2008,09,23,06,06,6.70
2008,09,23,06,07,6.70
2008,09,23,06,08,6.70
2008,09,23,06,09,6.70
2008,09,23,06,10,6.70
2008,09,23,06,11,6.70
2008,09,23,06,12,6.70
2008,09,23,06,13,6.60
2008,09,23,06,14,6.70
2008,09,23,06,15,6.70
2008,09,23,06,16,6.80
2008,09,23,06,17,6.80
2008,09,23,06,18,6.80
2008,09,23,06,19,6.90
2008,09,23,06,20,6.90
2008,09,23,06,21,6.90
2008,09,23,06,22,6.80
2008,09,23,06,23,6.80
2008,09,23,06,24,6.70
2008,09,23,06,25,6.60
2008,09,23,06,26,6.60
2008,09,23,06,27,6.40
2008,09,23,06,28,6.40
2008,09,23,06,29,6.30
2008,09,23,06,30,6.30
2008,09,23,06,31,6.30
2008,09,23,06,32,6.40
2008,09,23,06,33,6.40
2008,09,23,06,34,6.40
2008,09,23,06,35,6.40
2008,09,23,06,36,6.40
2008,09,23,06,37,6.40
2008,09,23,06,38,6.40
2008,09,23,06,39,6.40
2008,09,23,06,40,6.40
2008,09,23,06,41,6.60
2008,09,23,06,42,6.60
2008,09,23,06,43,6.60
2008,09,23,06,44,6.70
2008,09,23,06,45,6.70
2008,09,23,06,46,6.70
2008,09,23,06,47,6.70
2008,09,23,06,48,6.70
2008,09,23,06,49,6.80
2008,09,23,06,50,6.80
2008,09,23,06,51,6.80
2008,09,23,06,52,6.80
2008,09,23,06,53,6.80
2008,09,23,06,54,6.80
2008,09,23,06,55,6.80
2008,09,23,06,56,6.80
2008,09,23,06,57,6.80
2008,09,23,06,58,6.80
2008,09,23,06,59,6.80
2008,09,23,07,00,6.80
2008,09,23,07,01,6.80
2008,09,23,07,02,6.80
2008,09,23,07,03,6.80
2008,09,23,07,04,6.80
2008,09,23,07,05,6.80
2008,09,23,07,06,6.80
2008,09,23,07,07,6.80
2008,09,23,07,08,6.80
2008,09,23,07,09,6.70
2008,09,23,07,10,6.70
2008,09,23,07,11,6.70
2008,09,23,07,12,6.80
2008,09,23,07,13,6.80
2008,09,23,07,14,6.80
2008,09,23,07,15,6.80
2008,09,23,07,16,6.90
2008,09,23,07,17,6.90
2008,09,23,07,18,6.90
2008,09,23,07,19,7.00
2008,09,23,07,20,7.00
2008,09,23,07,21,7.00
2008,09,23,07,22,7.10
2008,09,23,07,23,7.10
2008,09,23,07,24,7.00
2008,09,23,07,25,7.00
2008,09,23,07,26,7.00
2008,09,23,07,27,7.00
2008,09,23,07,28,7.00
2008,09,23,07,29,6.90
2008,09,23,07,30,6.90
2008,09,23,07,31,6.90
2008,09,23,07,32,6.80
2008,09,23,07,33,6.80
2008,09,23,07,34,6.90
2008,09,23,07,35,6.90
2008,09,23,07,36,7.00
2008,09,23,07,37,7.00
2008,09,23,07,38,7.10
2008,09,23,07,39,7.10
2008,09,23,07,40,7.20
2008,09,23,07,41,7.20
2008,09,23,07,42,7.20
2008,09,23,07,43,7.20
2008,09,23,07,44,7.20
2008,09,23,07,45,7.30
2008,09,23,07,46,7.30
2008,09,23,07,47,7.30
2008,09,23,07,48,7.30
2008,09,23,07,49,7.30
2008,09,23,07,50,7.30
2008,09,23,07,51,7.30
2008,09,23,07,52,7.30
2008,09,23,07,53,7.20
2008,09,23,07,54,7.10
2008,09,23,07,55,7.00
2008,09,23,07,56,6.90
2008,09,23,07,57,6.90
2008,09,23,07,58,6.80
2008,09,23,07,59,6.80
2008,09,23,08,00,6.70
2008,09,23,08,01,6.70
2008,09,23,08,02,6.70
2008,09,23,08,03,6.70
2008,09,23,08,04,6.70
2008,09,23,08,05,6.70
2008,09,23,08,06,6.70
2008,09,23,08,07,6.80
2008,09,23,08,08,6.80
2008,09,23,08,09,6.80
2008,09,23,08,10,6.80
2008,09,23,08,11,6.90
2008,09,23,08,12,7.00
2008,09,23,08,13,7.00
2008,09,23,08,14,7.00
2008,09,23,08,15,7.10
2008,09,23,08,16,7.10
2008,09,23,08,17,7.10
2008,09,23,08,18,7.20
2008,09,23,08,19,7.20
2008,09,23,08,20,7.20
2008,09,23,08,21,7.30
2008,09,23,08,22,7.30
2008,09,23,08,23,7.30
2008,09,23,08,24,7.30
2008,09,23,08,25,7.40
2008,09,23,08,26,7.40
2008,09,23,08,27,7.50
2008,09,23,08,28,7.60
2008,09,23,08,29,7.60
2008,09,23,08,30,7.70
2008,09,23,08,31,7.80
2008,09,23,08,32,7.80
2008,09,23,08,33,7.80
2008,09,23,08,34,7.80
2008,09,23,08,35,7.90
2008,09,23,08,36,7.90
2008,09,23,08,37,8.00
2008,09,23,08,38,8.00
2008,09,23,08,39,8.10
2008,09,23,08,40,8.10
2008,09,23,08,41,8.20
2008,09,23,08,42,8.20
2008,09,23,08,43,8.20
2008,09,23,08,44,8.20
2008,09,23,08,45,8.30
2008,09,23,08,46,8.30
2008,09,23,08,47,8.40
2008,09,23,08,48,8.40
2008,09,23,08,49,8.50
2008,09,23,08,50,8.50
2008,09,23,08,51,8.60
2008,09,23,08,52,8.60
2008,09,23,08,53,8.70
2008,09,23,08,54,8.70
2008,09,23,08,55,8.80
2008,09,23,08,56,8.90
2008,09,23,08,57,8.90
2008,09,23,08,58,8.90
2008,09,23,08,59,9.00
2008,09,23,09,00,9.00
2008,09,23,09,01,9.10
2008,09,23,09,02,9.20
2008,09,23,09,03,9.20
2008,09,23,09,04,9.20
2008,09,23,09,05,9.20
2008,09,23,09,06,9.20
2008,09,23,09,07,9.30
2008,09,23,09,08,9.30
2008,09,23,09,09,9.30
2008,09,23,09,10,9.40
2008,09,23,09,11,9.40
2008,09,23,09,12,9.50
2008,09,23,09,13,9.60
2008,09,23,09,14,9.60
2008,09,23,09,15,9.70
2008,09,23,09,16,9.70
2008,09,23,09,17,9.80
2008,09,23,09,18,9.90
2008,09,23,09,19,9.90
2008,09,23,09,20,9.90
2008,09,23,09,21,9.90
2008,09,23,09,22,10.00
2008,09,23,09,23,10.10
2008,09,23,09,24,10.10
2008,09,23,09,25,10.10
2008,09,23,09,26,10.20
2008,09,23,09,27,10.20
2008,09,23,09,28,10.20
2008,09,23,09,29,10.20
2008,09,23,09,30,10.20
2008,09,23,09,31,10.20
2008,09,23,09,32,10.20
2008,09,23,09,33,10.20
2008,09,23,09,34,10.20
2008,09,23,09,35,10.10
2008,09,23,09,36,10.10
2008,09,23,09,37,10.10
2008,09,23,09,38,10.20
2008,09,23,09,39,10.30
2008,09,23,09,40,10.40
2008,09,23,09,41,10.40
2008,09,23,09,42,10.50
2008,09,23,09,43,10.60
2008,09,23,09,44,10.60
2008,09,23,09,45,10.60
2008,09,23,09,46,10.50
2008,09,23,09,47,10.40
2008,09,23,09,48,10.40
2008,09,23,09,49,10.40
2008,09,23,09,50,10.50
2008,09,23,09,51,10.60
2008,09,23,09,52,10.50
2008,09,23,09,53,10.40
2008,09,23,09,54,10.40
2008,09,23,09,55,10.30
2008,09,23,09,56,10.40
2008,09,23,09,57,10.40
2008,09,23,09,58,10.40
2008,09,23,09,59,10.40
2008,09,23,10,00,10.60
2008,09,23,10,01,10.60
2008,09,23,10,02,10.60
2008,09,23,10,03,10.70
2008,09,23,10,04,10.70
2008,09,23,10,05,10.70
2008,09,23,10,06,10.70
2008,09,23,10,07,10.70
2008,09,23,10,08,10.80
2008,09,23,10,09,10.80
2008,09,23,10,10,10.80
2008,09,23,10,11,10.90
2008,09,23,10,12,10.90
2008,09,23,10,13,10.90
2008,09,23,10,14,10.90
2008,09,23,10,15,10.90
2008,09,23,10,16,10.90
2008,09,23,10,17,10.80
2008,09,23,10,18,10.80
2008,09,23,10,19,10.80
2008,09,23,10,20,10.80
2008,09,23,10,21,10.80
2008,09,23,10,22,10.80
2008,09,23,10,23,10.90
2008,09,23,10,24,10.90
2008,09,23,10,25,10.90
2008,09,23,10,26,10.80
2008,09,23,10,27,10.80
2008,09,23,10,28,10.80
2008,09,23,10,29,10.70
2008,09,23,10,30,10.70
2008,09,23,10,31,10.70
2008,09,23,10,32,10.60
2008,09,23,10,33,10.60
2008,09,23,10,34,10.60
2008,09,23,10,35,10.70
2008,09,23,10,36,10.80
2008,09,23,10,37,10.80
2008,09,23,10,38,10.80
2008,09,23,10,39,10.80
2008,09,23,10,40,10.80
2008,09,23,10,41,10.80
2008,09,23,10,42,10.70
2008,09,23,10,43,10.60
2008,09,23,10,44,10.60
2008,09,23,10,45,10.60
2008,09,23,10,46,10.60
2008,09,23,10,47,10.60
2008,09,23,10,48,10.60
2008,09,23,10,49,10.60
2008,09,23,10,50,10.60
2008,09,23,10,51,10.70
2008,09,23,10,52,10.80
2008,09,23,10,53,10.90
2008,09,23,10,54,10.90
2008,09,23,10,55,10.90
2008,09,23,10,56,10.90
2008,09,23,10,57,10.90
2008,09,23,10,58,10.80
2008,09,23,10,59,10.80
2008,09,23,11,00,10.80
2008,09,23,11,01,10.90
2008,09,23,11,02,10.90
2008,09,23,11,03,10.90
2008,09,23,11,04,11.10
2008,09,23,11,05,11.10
2008,09,23,11,06,11.10
2008,09,23,11,07,11.10
2008,09,23,11,08,11.10
2008,09,23,11,09,11.20
2008,09,23,11,10,11.20
2008,09,23,11,11,11.30
2008,09,23,11,12,11.30
2008,09,23,11,13,11.20
2008,09,23,11,14,11.10
2008,09,23,11,15,11.10
2008,09,23,11,16,11.20
2008,09,23,11,17,11.10
2008,09,23,11,18,11.10
2008,09,23,11,19,11.10
2008,09,23,11,20,11.20
2008,09,23,11,21,11.30
2008,09,23,11,22,11.40
2008,09,23,11,23,11.30
2008,09,23,11,24,11.30
2008,09,23,11,25,11.30
2008,09,23,11,26,11.30
2008,09,23,11,27,11.30
2008,09,23,11,28,11.40
2008,09,23,11,29,11.40
2008,09,23,11,30,11.40
2008,09,23,11,31,11.40
2008,09,23,11,32,11.40
2008,09,23,11,33,11.40
2008,09,23,11,34,11.40
2008,09,23,11,35,11.30
2008,09,23,11,36,11.30
2008,09,23,11,37,11.40
2008,09,23,11,38,11.30
2008,09,23,11,39,11.30
2008,09,23,11,40,11.30
2008,09,23,11,41,11.50
2008,09,23,11,42,11.60
2008,09,23,11,43,11.70
2008,09,23,11,44,11.80
2008,09,23,11,45,11.80
2008,09,23,11,46,11.70
2008,09,23,11,47,11.70
2008,09,23,11,48,11.60
2008,09,23,11,49,11.60
2008,09,23,11,50,11.50
2008,09,23,11,51,11.40
2008,09,23,11,52,11.40
2008,09,23,11,53,11.40
2008,09,23,11,54,11.40
2008,09,23,11,55,11.40
2008,09,23,11,56,11.50
2008,09,23,11,57,11.60
2008,09,23,11,58,11.70
2008,09,23,11,59,11.70
2008,09,23,12,00,11.70
2008,09,23,12,01,11.70
2008,09,23,12,02,11.70
2008,09,23,12,03,11.60
2008,09,23,12,04,11.60
2008,09,23,12,05,11.60
2008,09,23,12,06,11.60
2008,09,23,12,07,11.70
2008,09,23,12,08,11.80
2008,09,23,12,09,12.00
2008,09,23,12,10,12.00
2008,09,23,12,11,12.10
2008,09,23,12,12,12.10
2008,09,23,12,13,12.20
2008,09,23,12,14,12.10
2008,09,23,12,15,12.00
2008,09,23,12,16,12.00
2008,09,23,12,17,12.00
2008,09,23,12,18,12.00
2008,09,23,12,19,12.00
2008,09,23,12,20,12.10
2008,09,23,12,21,12.10
2008,09,23,12,22,12.10
2008,09,23,12,23,12.10
2008,09,23,12,24,12.20
2008,09,23,12,25,12.30
2008,09,23,12,26,12.30
2008,09,23,12,27,12.30
2008,09,23,12,28,12.30
2008,09,23,12,29,12.30
2008,09,23,12,30,12.30
2008,09,23,12,31,12.30
2008,09,23,12,32,12.30
2008,09,23,12,33,12.40
2008,09,23,12,34,12.50
2008,09,23,12,35,12.60
2008,09,23,12,36,12.70
2008,09,23,12,37,12.80
2008,09,23,12,38,12.80
2008,09,23,12,39,12.80
2008,09,23,12,40,12.80
2008,09,23,12,41,12.80
2008,09,23,12,42,12.80
2008,09,23,12,43,12.90
2008,09,23,12,44,13.00
2008,09,23,12,45,13.00
2008,09,23,12,46,13.10
2008,09,23,12,47,13.10
2008,09,23,12,48,13.10
2008,09,23,12,49,13.10
2008,09,23,12,50,13.00
2008,09,23,12,51,13.00
2008,09,23,12,52,13.10
2008,09,23,12,53,13.10
2008,09,23,12,54,13.10
2008,09,23,12,55,13.00
2008,09,23,12,56,13.00
2008,09,23,12,57,12.90
2008,09,23,12,58,12.90
2008,09,23,12,59,12.90
2008,09,23,13,00,12.90
2008,09,23,13,01,12.90
2008,09,23,13,02,12.90
2008,09,23,13,03,12.90
2008,09,23,13,04,12.90
2008,09,23,13,05,12.90
2008,09,23,13,06,12.90
2008,09,23,13,07,13.00
2008,09,23,13,08,13.10
2008,09,23,13,09,13.10
2008,09,23,13,10,13.20
2008,09,23,13,11,13.20
2008,09,23,13,12,13.20
2008,09,23,13,13,13.10
2008,09,23,13,14,13.00
2008,09,23,13,15,13.00
2008,09,23,13,16,13.00
2008,09,23,13,17,13.00
2008,09,23,13,18,12.90
2008,09,23,13,19,12.80
2008,09,23,13,20,12.80
2008,09,23,13,21,12.80
2008,09,23,13,22,12.90
2008,09,23,13,23,12.90
2008,09,23,13,24,13.00
2008,09,23,13,25,13.00
2008,09,23,13,26,13.00
2008,09,23,13,27,13.00
2008,09,23,13,28,12.90
2008,09,23,13,29,12.90
2008,09,23,13,30,13.00
2008,09,23,13,31,13.00
2008,09,23,13,32,13.00
2008,09,23,13,33,13.00
2008,09,23,13,34,12.90
2008,09,23,13,35,12.90
2008,09,23,13,36,12.90
2008,09,23,13,37,13.00
2008,09,23,13,38,13.10
2008,09,23,13,39,13.10
2008,09,23,13,40,13.10
2008,09,23,13,41,13.20
2008,09,23,13,42,13.20
2008,09,23,13,43,13.20
2008,09,23,13,44,13.20
2008,09,23,13,45,13.20
2008,09,23,13,46,13.10
2008,09,23,13,47,13.10
2008,09,23,13,48,13.10
2008,09,23,13,49,13.10
2008,09,23,13,50,13.10
2008,09,23,13,51,13.00
2008,09,23,13,52,13.00
2008,09,23,13,53,13.00
2008,09,23,13,54,13.00
2008,09,23,13,55,13.00
2008,09,23,13,56,13.00
2008,09,23,13,57,13.00
2008,09,23,13,58,13.00
2008,09,23,13,59,13.00
2008,09,23,14,00,13.10
2008,09,23,14,01,13.20
2008,09,23,14,02,13.30
2008,09,23,14,03,13.30
2008,09,23,14,04,13.30
2008,09,23,14,05,13.30
2008,09,23,14,06,13.30
2008,09,23,14,07,13.40
2008,09,23,14,08,13.40
2008,09,23,14,09,13.50
2008,09,23,14,10,13.60
2008,09,23,14,11,13.60
2008,09,23,14,12,13.60
2008,09,23,14,13,13.50
2008,09,23,14,14,13.60
2008,09,23,14,15,13.60
2008,09,23,14,16,13.60
2008,09,23,14,17,13.60
2008,09,23,14,18,13.60
2008,09,23,14,19,13.70
2008,09,23,14,20,13.70
2008,09,23,14,21,13.70
2008,09,23,14,22,13.70
2008,09,23,14,23,13.80
2008,09,23,14,24,13.80
2008,09,23,14,25,13.80
2008,09,23,14,26,13.80
2008,09,23,14,27,13.80
2008,09,23,14,28,13.70
2008,09,23,14,29,13.70
2008,09,23,14,30,13.60
2008,09,23,14,31,13.50
2008,09,23,14,32,13.50
2008,09,23,14,33,13.50
2008,09,23,14,34,13.50
2008,09,23,14,35,13.50
2008,09,23,14,36,13.40
2008,09,23,14,37,13.40
2008,09,23,14,38,13.40
2008,09,23,14,39,13.40
2008,09,23,14,40,13.40
2008,09,23,14,41,13.50
2008,09,23,14,42,13.60
2008,09,23,14,43,13.60
2008,09,23,14,44,13.60
2008,09,23,14,45,13.60
2008,09,23,14,46,13.60
2008,09,23,14,47,13.60
2008,09,23,14,48,13.60
2008,09,23,14,49,13.60
2008,09,23,14,50,13.60
2008,09,23,14,51,13.60
2008,09,23,14,52,13.70
2008,09,23,14,53,13.70
2008,09,23,14,54,13.70
2008,09,23,14,55,13.70
2008,09,23,14,56,13.70
2008,09,23,14,57,13.70
2008,09,23,14,58,13.70
2008,09,23,14,59,13.70
2008,09,23,15,00,13.70
2008,09,23,15,01,13.70
2008,09,23,15,02,13.60
2008,09,23,15,03,13.60
2008,09,23,15,04,13.60
2008,09,23,15,05,13.50
2008,09,23,15,06,13.50
2008,09,23,15,07,13.50
2008,09,23,15,08,13.50
2008,09,23,15,09,13.60
2008,09,23,15,10,13.60
2008,09,23,15,11,13.60
2008,09,23,15,12,13.70
2008,09,23,15,13,13.70
2008,09,23,15,14,13.70
2008,09,23,15,15,13.80
2008,09,23,15,16,13.80
2008,09,23,15,17,13.70
2008,09,23,15,18,13.70
2008,09,23,15,19,13.70
2008,09,23,15,20,13.60
2008,09,23,15,21,13.60
2008,09,23,15,22,13.50
2008,09,23,15,23,13.40
2008,09,23,15,24,13.40
2008,09,23,15,25,13.40
2008,09,23,15,26,13.40
2008,09,23,15,27,13.40
2008,09,23,15,28,13.40
2008,09,23,15,29,13.40
2008,09,23,15,30,13.40
2008,09,23,15,31,13.50
2008,09,23,15,32,13.50
2008,09,23,15,33,13.60
2008,09,23,15,34,13.60
2008,09,23,15,35,13.60
2008,09,23,15,36,13.60
2008,09,23,15,37,13.60
2008,09,23,15,38,13.60
2008,09,23,15,39,13.60
2008,09,23,15,40,13.60
2008,09,23,15,41,13.50
2008,09,23,15,42,13.60
2008,09,23,15,43,13.60
2008,09,23,15,44,13.70
2008,09,23,15,45,13.70
2008,09,23,15,46,13.70
2008,09,23,15,47,13.80
2008,09,23,15,48,13.70
2008,09,23,15,49,13.70
2008,09,23,15,50,13.70
2008,09,23,15,51,13.60
2008,09,23,15,52,13.60
2008,09,23,15,53,13.60
2008,09,23,15,54,13.60
2008,09,23,15,55,13.50
2008,09,23,15,56,13.50
2008,09,23,15,57,13.50
2008,09,23,15,58,13.40
2008,09,23,15,59,13.40
2008,09,23,16,00,13.30
2008,09,23,16,01,13.30
2008,09,23,16,02,13.30
2008,09,23,16,03,13.30
2008,09,23,16,04,13.30
2008,09,23,16,05,13.30
2008,09,23,16,06,13.30
2008,09,23,16,07,13.30
2008,09,23,16,08,13.30
2008,09,23,16,09,13.30
2008,09,23,16,10,13.30
2008,09,23,16,11,13.30
2008,09,23,16,12,13.30
2008,09,23,16,13,13.30
2008,09,23,16,14,13.30
2008,09,23,16,15,13.30
2008,09,23,16,16,13.30
2008,09,23,16,17,13.30
2008,09,23,16,18,13.40
2008,09,23,16,19,13.40
2008,09,23,16,20,13.40
2008,09,23,16,21,13.40
2008,09,23,16,22,13.30
2008,09,23,16,23,13.30
2008,09,23,16,24,13.30
2008,09,23,16,25,13.20
2008,09,23,16,26,13.20
2008,09,23,16,27,13.20
2008,09,23,16,28,13.20
2008,09,23,16,29,13.20
2008,09,23,16,30,13.20
2008,09,23,16,31,13.20
2008,09,23,16,32,13.20
2008,09,23,16,33,13.20
2008,09,23,16,34,13.20
2008,09,23,16,35,13.20
2008,09,23,16,36,13.20
2008,09,23,16,37,13.20
2008,09,23,16,38,13.20
2008,09,23,16,39,13.20
2008,09,23,16,40,13.20
2008,09,23,16,41,13.30
2008,09,23,16,42,13.30
2008,09,23,16,43,13.30
2008,09,23,16,44,13.30
2008,09,23,16,45,13.30
2008,09,23,16,46,13.30
2008,09,23,16,47,13.30
2008,09,23,16,48,13.30
2008,09,23,16,49,13.30
2008,09,23,16,50,13.30
2008,09,23,16,51,13.30
2008,09,23,16,52,13.30
2008,09,23,16,53,13.30
2008,09,23,16,54,13.30
2008,09,23,16,55,13.30
2008,09,23,16,56,13.30
2008,09,23,16,57,13.40
2008,09,23,16,58,13.40
2008,09,23,16,59,13.40
2008,09,23,17,00,13.40
2008,09,23,17,01,13.40
2008,09,23,17,02,13.40
2008,09,23,17,03,13.50
2008,09,23,17,04,13.50
2008,09,23,17,05,13.50
2008,09,23,17,06,13.50
2008,09,23,17,07,13.60
2008,09,23,17,08,13.60
2008,09,23,17,09,13.60
2008,09,23,17,10,13.60
2008,09,23,17,11,13.60
2008,09,23,17,12,13.60
2008,09,23,17,13,13.60
2008,09,23,17,14,13.60
2008,09,23,17,15,13.70
2008,09,23,17,16,13.70
2008,09,23,17,17,13.70
2008,09,23,17,18,13.60
2008,09,23,17,19,13.60
2008,09,23,17,20,13.60
2008,09,23,17,21,13.50
2008,09,23,17,22,13.50
2008,09,23,17,23,13.50
2008,09,23,17,24,13.40
2008,09,23,17,25,13.40
2008,09,23,17,26,13.40
2008,09,23,17,27,13.40
2008,09,23,17,28,13.30
2008,09,23,17,29,13.30
2008,09,23,17,30,13.30
2008,09,23,17,31,13.30
2008,09,23,17,32,13.30
2008,09,23,17,33,13.30
2008,09,23,17,34,13.30
2008,09,23,17,35,13.30
2008,09,23,17,36,13.30
2008,09,23,17,37,13.40
2008,09,23,17,38,13.40
2008,09,23,17,39,13.40
2008,09,23,17,40,13.30
2008,09,23,17,41,13.30
2008,09,23,17,42,13.40
2008,09,23,17,43,13.40